Simultaneous Nadir Overpasses (SNOs) Predictions

Prediction of SNOs between GOES-17 and NOAA-20 Satellite Orbit:

Table of predicted SNOs for the next 14.0 days since TLE Epoch: 2/12/2022
Index Date Time (GOES-17) GOES-17 Lat,Lon NOAA-20 Lat,Lon Distance(km) Time Diff (sec)
1 02/12/2022 10:17:56 -0.04,-137.20 -0.80,-133.70 398.40 80
2 02/13/2022 22:39:54 0.03,-137.19 -0.39,-139.01 208.04 80
3 02/14/2022 22:23:50 0.03,-137.18 0.62,-134.48 307.35 80
4 02/16/2022 10:45:40 -0.01,-137.17 0.57,-139.75 294.17 80
5 02/17/2022 10:24:16 -0.01,-137.16 -0.44,-135.22 220.73 80
6 02/18/2022 22:46:14 0.01,-137.14 -0.74,-140.53 386.72 80
7 02/19/2022 22:30:11 0.01,-137.12 0.27,-136.01 127.86 80
8 02/21/2022 10:52:00 -0.01,-137.11 0.92,-141.28 475.00 80
9 02/22/2022 10:30:37 -0.01,-137.09 -0.09,-136.75 39.02 80
10 02/24/2022 22:33:51 -0.00,-137.03 -0.12,-137.52 56.41 80
11 02/25/2022 22:17:47 -0.00,-137.00 0.89,-132.99 456.93 80
